Regional Weather Roundup
Issued by NWS

Home | Current Version | Previous Version | Graphics & Text | Print | Product List | Glossary On
Versions: 1 2 3 4 5 6 7 8 9 10 11 12 13 14 15 16 17 18 19 20 21 22 23 24 25 26 27 28 29 30 31 32 33 34 35 36 37 38 39 40 41 42 43 44 45 46 47 48 49 50
000
ASUS43 KMPX 222301
RWRMN
WEATHER ROUNDUP FOR MINNESOTA
NATIONAL WEATHER SERVICE TWIN CITIES/CHANHASSEN MN
600 PM CDT SUN APR 22 2018


NOTE: "FAIR" INDICATES FEW OR NO CLOUDS BELOW 12,000 FEET WITH NO
SIGNIFICANT WEATHER AND/OR OBSTRUCTIONS TO VISIBILITY. N/A MEANS
CURRENT SKY AND/OR WEATHER CONDITIONS ARE NOT AVAILABLE.

MNZ060>063-068>070-230000-
   Twin Cities Metro

CITY           SKY/WX    TMP DP  RH WIND       PRES   REMARKS
TWIN CITIES    FAIR      63  35  35 VRB6      30.24F
ST PAUL        FAIR      63  37  38 SE8       30.25F
BLAINE         MOSUNNY   64  32  29 S6        30.24F
LAKEVILLE      FAIR      61  39  44 S6        30.25F
EDEN PRAIRIE   FAIR      62  36  37 S7        30.23F
SOUTH ST PAUL  FAIR      63  35  34 S7        30.24F
LAKE ELMO      FAIR      63  36  36 S7        30.25S
$$
MNZ001>005-007-008-013>017-022>024-027-028-230000-
   Northwest Minnesota

CITY           SKY/WX    TMP DP  RH WIND       PRES   REMARKS
BEMIDJI        FAIR      62  32  32 SW10G17   30.17S
HALLOCK        CLOUDY    63  41  45 SW14      30.09S
ROSEAU         CLOUDY    61  46  59 SW20      30.12F
WARROAD        FAIR      61  45  55 SW15G23   30.12F
THIEF RVR FALL FAIR      60  43  53 W21       30.15S
CROOKSTON      FAIR      63  43  48 SW20      30.15S
FOSSTON        FAIR      61  37  41 SW17G23   30.17F
DETROIT LAKES  FAIR      61  34  36 SW13      30.21S
MOORHEAD       FAIR      64  37  36 S13G21    30.17F
PARK RAPIDS    FAIR      62  33  33 W15       30.20S
MAHNOMEN       FAIR      61  39  44 SW16G22   30.17S
$$
MNZ006-009>011-018-025>026-230000-
   North Central Minnesota

CITY           SKY/WX    TMP DP  RH WIND       PRES   REMARKS
BAUDETTE       FAIR      62  39  42 W14G26    30.12S
FLAG ISLAND    FAIR      52  36  54 SW15      30.08S
INTL FALLS     FAIR      63  31  30 SW12      30.13F
WASKISH        FAIR      55  36  47 W10       30.16S
BIG FORK       FAIR      61  30  31 SW15      30.18S
LONGVILLE      FAIR      63  30  29 SW6       30.20F
GRAND RAPIDS   FAIR      60  29  30 SW10      30.22S
CRANE LAKE     FAIR      61  21  21 SW5       30.19S
ORR            FAIR      63  21  20 SW8G16    30.16S
COOK           FAIR      61  28  29 SW12      30.19S
WALKER         FAIR      61  32  33 S10G22    30.19S
$$
MNZ012-019>021-037-230000-
   Northeast Minnesota

CITY           SKY/WX    TMP DP  RH WIND       PRES   REMARKS
DULUTH         FAIR      60  32  34 SW12      30.22F
ELY            FAIR      61  27  27 W9        30.18F
HIBBING        FAIR      59  26  28 S10G17    30.20S
EVELETH        FAIR      61  27  28 SW10      30.21S
DULUTH HARBOR  FAIR      39  34  81 N5        30.26S
TWO HARBORS    FAIR      63  36  36 S6        30.22S
SILVER BAY     FAIR      57  25  28 S6        30.21F
GRAND MARAIS     N/A     46  28  49 CALM      30.24F
G MARAIS ARPRT FAIR      52  18  25 S6        30.23F
$$
MNZ029>031-032-039>041-046>048-054>057-064-230000-
   West Central Minnesota

CITY           SKY/WX    TMP DP  RH WIND       PRES   REMARKS
FERGUS FALLS   FAIR      61  37  41 S15       30.19R
WHEATON        SUNNY     59  36  41 S12       30.23S
MORRIS         SUNNY     59  41  51 S16       30.22S
ALEXANDRIA     FAIR      62  38  40 S12       30.23F
ELBOW LAKE     FAIR      59  39  47 SW14      30.23S
WADENA         FAIR      61  37  41 S12       30.21S
GLENWOOD       FAIR      61  37  41 S12       30.24S
APPLETON       SUNNY     59  36  41 S10       30.23S
BENSON         SUNNY     59  39  47 SW14      30.25S
ORTONVILLE     SUNNY     57  34  41 S13       30.22S
MADISON        SUNNY     59  41  51 S12       30.23F
WILLMAR        FAIR      59  43  55 S7        30.26F
$$
MNZ033>034-036-042>043-049>051-058-059-230000-
   Central Minnesota

CITY           SKY/WX    TMP DP  RH WIND       PRES   REMARKS
ST CLOUD       FAIR      61  35  37 SW10      30.24S
SAUK CENTRE    FAIR      59  37  43 S9        30.24S
PAYNESVILLE    FAIR      60  39  46 S7        30.24F
AITKIN         FAIR      57  30  35 S9        30.22S
PINE RIVER     FAIR      59  34  38 SW9G17    30.24S
BRAINERD       FAIR      62  32  32 SW12      30.22F
STAPLES        FAIR      61  30  31 SW8       30.22S
LONG PRAIRIE   FAIR      59  36  41 SE10      30.23S
LITTLE FALLS   FAIR      61  23  23 SW9       30.24S
LITCHFIELD     FAIR      61  39  44 SE6       30.25S
BUFFALO        FAIR      61  32  33 SE3       30.25F
MAPLE LAKE     FAIR      62  38  42 SW5       30.25S
HUTCHINSON     FAIR      60  41  49 SE6       30.25F
$$
MNZ037-044-045-052-053-230000-
   East Central Minnesota

CITY           SKY/WX    TMP DP  RH WIND       PRES   REMARKS
PRINCETON      FAIR      64  30  27 S6        30.24S
MORA           FAIR      59  32  36 S6        30.26S
CAMBRIDGE      FAIR      64  41  42 SE7       30.25S
RUSH CITY      FAIR      61  31  32 S7        30.25F
MOOSE LAKE     FAIR      61  32  33 SW7       30.22S
HINCKLEY       FAIR      61  34  36 SW8       30.25S
CLOQUET        FAIR      61  25  25 SW10      30.23F
MCGREGOR       FAIR      59  30  33 S8G17     30.23F
$$
MNZ071>073-080-081-089-090-097-098-230000-
   Southwest Minnesota

CITY           SKY/WX    TMP DP  RH WIND       PRES   REMARKS
MONTEVIDEO     SUNNY     57  39  51 S9        30.24F
GRANITE FALLS  SUNNY     58  41  53 SE14      30.25F
CANBY          SUNNY     56  38  51 S8        30.25R
MARSHALL       SUNNY     54  37  52 S12       30.25R
REDWOOD FALLS  SUNNY     57  41  55 SE12      30.24F
OLIVIA         SUNNY     57  41  54 S8        30.24S
PIPESTONE      SUNNY    N/A N/A N/A S10       30.22S
WINDOM         SUNNY     54  30  40 SE8       30.24F
WORTHINGTON    SUNNY     52  38  58 E15       30.22F
JACKSON        SUNNY     50  37  62 E6        30.25F
TRACY          SUNNY     53  39  60 SE9       30.24R
SLAYTON        SUNNY     50  38  63 E10       30.24S
$$
MNZ065>067-074>077-082>085-091>093-230000-
   South Central Minnesota

CITY           SKY/WX    TMP DP  RH WIND       PRES   REMARKS
MANKATO        FAIR      59  40  49 SE9       30.25F
NEW ULM        SUNNY     55  39  54 S9        30.25S
ST JAMES       SUNNY     50  39  66 SE7       30.26F
GLENCOE        FAIR      62  40  44 S8        30.24S
OWATONNA       FAIR      59  39  47 SE7       30.25F
WASECA         FAIR      55  37  50 SE9       30.26F
ALBERT LEA     FAIR      55  36  47 E6        30.25F
$$
MNZ078>079-086>088-094>096-230000-
   Southeast Minnesota

CITY           SKY/WX    TMP DP  RH WIND       PRES   REMARKS
ROCHESTER      FAIR      59  37  44 E6        30.25F
RED WING       FAIR      64  25  22 S8        30.24S
STANTON        FAIR      62  37  40 SE5       30.23F
DODGE CENTER   FAIR      59  37  44 E8        30.25F
WINONA         FAIR      63  30  29 SE6       30.23F
AUSTIN         FAIR      57  39  51 E7        30.25S
PRESTON        FAIR      59  31  35 E7        30.26S
$$
ABBREVIATIONS USED IN REMARKS
   TC - TEMPERATURES IN CELSIUS
  WCI - WIND CHILL INDEX
   HX - HEAT INDEX
  VSB - VISIBILITY
$$




USA.gov is the U.S. government's official web portal to all federal, state and local government web resources and services.